Regional Weather Roundup
Issued by NWS Midland/Odessa, TX

Skip options and go directly to product.
Home | Oldest Version | Previous Version | Current Version | All | Text Only | Save Text | Print | Product List | Glossary On

Skip product version selection by date and time.   
650
ASUS44 KMAF 301510
RWRMAF
MIDLAND AREA WEATHER ROUNDUP
NATIONAL WEATHER SERVICE MIDLAND TX
1000 AM CDT TUE SEP 30 2014

...IN SOUTHWEST TEXAS AND SOUTHEAST NEW MEXICO...

CITY           SKY/WX    TMP DP  RH WIND       PRES   REMARKS
ALPINE         MOSUNNY   73  57  56 W8        30.08R
ANDREWS        FAIR      71  60  69 S13G18    29.92S
ARTESIA        NOT AVBL
BIG SPRING     MOSUNNY   74  64  70 S16       29.93S
CARLSBAD       SUNNY     68  60  75 VRB5      29.93R
DRYDEN           N/A     73  65  75 CALM      29.90S
FORT STOCKTON  SUNNY     75  59  57 SW15      29.92R
GUAD PASS      SUNNY     63  57  81 SW8       30.07R
HOBBS          SUNNY     66  63  88 S9        29.95R
MARFA          SUNNY     64  57  77 CALM      30.07S
MIDLAND AIRPK  PTSUNNY   73  62  68 S16       29.92S
MIDLAND INTL   SUNNY     73  61  65 S15       29.91S
ODESSA         SUNNY     71  61  70 S13       29.92S
PECOS          SUNNY     70  61  72 CALM      29.90S
PRESIDIO       FAIR      75  60  58 CALM      29.95R
SEMINOLE       SUNNY     70  60  71 SW10      29.94S
SNYDER         PTSUNNY   70  63  77 S13G18    29.92F
WINK           SUNNY     72  61  68 SE10      29.89S
$$
...OTHER STATIONS IN TEXAS...

CITY           SKY/WX    TMP DP  RH WIND       PRES   REMARKS
ABILENE        MOSUNNY   78  64  61 SW15      29.92S
AMARILLO       SUNNY     69  58  67 S18G25    29.89F
AUSTIN         SUNNY     78  67  68 CALM      29.90S
BROWNSVILLE    CLOUDY    78  78 100 CALM      29.85R
CORPUS CHRISTI LGT RAIN  77  75  93 N8        29.86S
DALLAS FTW     PTSUNNY   81  69  67 S8        29.90S
DEL RIO        SUNNY     75  68  78 E9        29.88S
EL PASO        MOSUNNY   72  53  51 S7        29.97S
HOUSTON INT    MOSUNNY   80  74  81 E6        29.88S
LUBBOCK        MOSUNNY   68  60  75 SW12      29.92S
SAN ANGELO     SUNNY     76  64  66 S10       29.91S
SAN ANTONIO    MOSUNNY   79  69  71 CALM      29.91R
WACO           SUNNY     78  68  71 S6        29.91S
WICHITA FALLS  NOT AVBL
$$
...OTHER LOCATIONS IN NEW MEXICO...

CITY           SKY/WX    TMP DP  RH WIND       PRES   REMARKS
ALAMAGORDO     SUNNY     68  57  68 S10       29.98S
ALBUQUERQUE    SUNNY     54  37  52 CALM      30.06S
CANNON AFB     SUNNY     64  57  77 W12       29.95S
CLOVIS           N/A     64  57  77 SW9       29.96F
HOLLOMAN AFB   SUNNY     67  56  66 S5        29.96R
ROSWELL        SUNNY     67  49  52 N6        29.94S
RUIDOSO        SUNNY     57  34  41 N5        30.11S
SANTA FE       SUNNY     53  33  46 N10       30.06S
TRUTH OR CONSE SUNNY     62  40  44 N5        30.03R
TUCUMCARI      SUNNY     62  47  57 W10       29.90F
$$

USA.gov is the U.S. government's official web portal to all federal, state and local government web resources and services.